Regional Weather Roundup
Issued by NWS

Home | Current Version | Previous Version | Graphics & Text | Print | Product List | Glossary Off
Versions: 1 2 3 4 5 6 7 8 9 10 11 12 13 14 15 16 17 18 19 20 21 22 23 24 25 26 27

000
ASUS43 KDMX 191407
RWRIA

WEATHER ROUNDUP FOR IOWA
NATIONAL WEATHER SERVICE DES MOINES IA
900 AM CDT SAT APR 19 2014

NOTE: "FAIR" INDICATES FEW OR NO CLOUDS BELOW 12,000 FEET WITH NO
SIGNIFICANT WEATHER AND/OR OBSTRUCTIONS TO VISIBILITY.

* - THESE STATIONS ARE NOT NWS STATIONS...THUS NOT UNDER NWS
QUALITY CONTROL.  THEY ALSO DO NOT REPORT WEATHER SUCH
AS PRECIPITATION OR FOG.

IAZ001>003-012>014-020>022-031>034-043>046-191500-
   NORTHWEST IOWA

CITY           SKY/WX    TMP DP  RH WIND       PRES   REMARKS
CARROLL *      SUNNY     57  41  54 SE15      30.12S
CHEROKEE *     MOSUNNY   57  41  54 S14       30.06R
DENISON *      SUNNY     59  41  51 S22G30    30.07F
LE MARS *      SUNNY     59  43  55 S24G31    30.01F
ORANGE CITY *  SUNNY     59  41  51 S17G26    30.00F
SHELDON *      SUNNY     57  41  54 S24G37    29.99F
SIOUX CITY     PTSUNNY   58  42  55 S14       30.03S
SPENCER        MOSUNNY   57  40  52 S25G31    30.06R
STORM LAKE *   SUNNY     55  41  58 S20       30.07F
$$

IAZ055>058-069>071-079>083-090>094-191500-
   SOUTHWEST IOWA

CITY           SKY/WX    TMP DP  RH WIND       PRES   REMARKS
ATLANTIC *     SUNNY     59  41  51 S14       30.11R
AUDUBON *      SUNNY     61  37  41 S10G17    30.13R
CLARINDA *     SUNNY     61  43  51 S14       30.12S
COUNCIL BLFS * SUNNY     59  43  55 SE13      30.08R
CRESTON *      SUNNY     57  43  58 S17       30.13F
HARLAN  *      SUNNY     59  41  51 S14       30.14R
LAMONI         MOSUNNY   57  41  55 S14G20    30.16R
RED OAK *      SUNNY     63  43  48 S14G21    30.10R
SHENANDOAH *   SUNNY     63  43  48 S17G23    30.10S
$$

IAZ047>049-059>061-072>074-084-191500-
   CENTRAL IOWA

CITY           SKY/WX    TMP DP  RH WIND       PRES   REMARKS
AMES           MOSUNNY   50  37  61 SE13G21   30.19R
ANKENY *       SUNNY     54  37  54 SE12G20   30.18S
CHARITON *     SUNNY     55  41  58 SE16      30.18S
DES MOINES     PTSUNNY   56  36  47 SE12      30.18S
GRINNELL*      SUNNY     46  36  66 E13G21    30.23S
KNOXVILLE *    SUNNY     54  37  54 SE15G21   30.19F
MARSHALLTOWN   SUNNY     46  35  65 SE18G26   30.21F
NEWTON *       SUNNY     48  39  71 SE17      30.22S
PELLA *        SUNNY     52  39  62 SE14      30.22S
PERRY *          N/A     55  36  47 SE15      30.16R
$$

IAZ004>006-015-016-023>025-035-036-191500-
   NORTH CENTRAL IOWA

CITY           SKY/WX    TMP DP  RH WIND       PRES   REMARKS
ALGONA *       SUNNY     52  36  54 SE24G32   30.10F
CLARION *      SUNNY     48  37  66 SE25G32   30.14F
ESTHERVILLE    MOSUNNY   50  36  58 S28G37    30.05F
FORT DODGE *   SUNNY     50  34  53 SE14      30.15F
MASON CITY     SUNNY     44  33  65 SE23G35   30.18F
FOREST CITY *  SUNNY     45  36  70 SE23      30.15F
IOWA FALLS *     N/A     46  36  66 SE17      30.21F
$$

IAZ007>011-017>019-026>030-037>042-050>054-066-191500-
   NORTHEAST IOWA

CITY           SKY/WX    TMP DP  RH WIND       PRES   REMARKS
CEDAR RAPIDS   MOSUNNY   44  27  51 SE17      30.27S
CHARLES CITY * SUNNY     43  28  56 SE22      30.23S
CLINTON *      PTSUNNY   45  28  53 SE14      30.36S
DECORAH *      SUNNY     41  25  52 SE18G28   30.25F
DUBUQUE        MOSUNNY   44  25  47 SE20      30.31F
MONTICELLO *   SUNNY     45  28  53 SE15G22   30.30S
OELWEIN *      SUNNY    N/A N/A N/A SE26      30.26F
WATERLOO       SUNNY     45  28  51 SE16G25   30.24F
$$

IAZ064-065-067-068-078-191500-
   EAST CENTRAL IOWA

CITY           SKY/WX    TMP DP  RH WIND       PRES   REMARKS
DAVENPORT      PTSUNNY   45  29  53 SE14G23   30.34R
IOWA CITY      MOSUNNY   44  27  51 SE13      30.31S
MT. PLEASANT * MOSUNNY   52  25  35 SE15      30.28S
MUSCATINE *    SUNNY     46  25  42 SE10      30.31F
QUAD CITIES    PTSUNNY   47  29  49 E9        30.33R
$$

IAZ062-063-075>077-085>089-095>099-191500-
   SOUTHEAST IOWA

CITY           SKY/WX    TMP DP  RH WIND       PRES   REMARKS
BURLINGTON     MOSUNNY   50  27  40 SE13      30.29R
FAIRFIELD *    SUNNY     50  32  50 SE14G22   30.25F
FORT MADISON * SUNNY     52  28  40 SE12      30.29S
KEOKUK *       SUNNY     52  32  46 SE13G18   30.27F
OSKALOOSA *      N/A     48  37  66 SE18      30.23F
CENTERVILLE *  SUNNY     55  39  54 SE13G20   30.21S
OTTUMWA        SUNNY     51  37  58 SE16      30.22F
WASHINGTON *   SUNNY     48  28  46 SE16G23   30.27F
$$

ABBREVIATIONS USED IN REMARKS
   TC - TEMPERATURES IN CELSIUS
  WCI - WIND CHILL INDEX
   HX - HEAT INDEX
  VSB - VISIBILITY
$$




USA.gov is the U.S. government's official web portal to all federal, state and local government web resources and services.